Year,Month,Day,Hour,Minute,Value (Times are PST for temperature in C)
2017,03,14,00,00,9.10
2017,03,14,00,01,9.10
2017,03,14,00,02,9.10
2017,03,14,00,03,9.10
2017,03,14,00,04,9.10
2017,03,14,00,05,9.10
2017,03,14,00,06,9.10
2017,03,14,00,07,9.10
2017,03,14,00,08,9.10
2017,03,14,00,09,9.10
2017,03,14,00,10,9.10
2017,03,14,00,11,9.10
2017,03,14,00,12,9.10
2017,03,14,00,13,9.10
2017,03,14,00,14,9.10
2017,03,14,00,15,9.10
2017,03,14,00,16,9.10
2017,03,14,00,17,9.20
2017,03,14,00,18,9.20
2017,03,14,00,19,9.20
2017,03,14,00,20,9.20
2017,03,14,00,21,9.20
2017,03,14,00,22,9.20
2017,03,14,00,23,9.20
2017,03,14,00,24,9.20
2017,03,14,00,25,9.20
2017,03,14,00,26,9.20
2017,03,14,00,27,9.20
2017,03,14,00,28,9.20
2017,03,14,00,29,9.20
2017,03,14,00,30,9.20
2017,03,14,00,31,9.20
2017,03,14,00,32,9.20
2017,03,14,00,33,9.20
2017,03,14,00,34,9.30
2017,03,14,00,35,9.30
2017,03,14,00,36,9.30
2017,03,14,00,37,9.30
2017,03,14,00,38,9.30
2017,03,14,00,39,9.30
2017,03,14,00,40,9.30
2017,03,14,00,41,9.30
2017,03,14,00,42,9.30
2017,03,14,00,43,9.30
2017,03,14,00,44,9.30
2017,03,14,00,45,9.20
2017,03,14,00,46,9.20
2017,03,14,00,47,9.20
2017,03,14,00,48,9.30
2017,03,14,00,49,9.30
2017,03,14,00,50,9.30
2017,03,14,00,51,9.30
2017,03,14,00,52,9.30
2017,03,14,00,53,9.30
2017,03,14,00,54,9.30
2017,03,14,00,55,9.30
2017,03,14,00,56,9.30
2017,03,14,00,57,9.30
2017,03,14,00,58,9.30
2017,03,14,00,59,9.30
2017,03,14,01,00,9.30
2017,03,14,01,01,9.30
2017,03,14,01,02,9.30
2017,03,14,01,03,9.30
2017,03,14,01,04,9.30
2017,03,14,01,05,9.30
2017,03,14,01,06,9.30
2017,03,14,01,07,9.30
2017,03,14,01,08,9.30
2017,03,14,01,09,9.30
2017,03,14,01,10,9.30
2017,03,14,01,11,9.40
2017,03,14,01,12,9.40
2017,03,14,01,13,9.40
2017,03,14,01,14,9.40
2017,03,14,01,15,9.40
2017,03,14,01,16,9.40
2017,03,14,01,17,9.40
2017,03,14,01,18,9.40
2017,03,14,01,19,9.40
2017,03,14,01,20,9.40
2017,03,14,01,21,9.50
2017,03,14,01,22,9.50
2017,03,14,01,23,9.50
2017,03,14,01,24,9.50
2017,03,14,01,25,9.50
2017,03,14,01,26,9.50
2017,03,14,01,27,9.50
2017,03,14,01,28,9.60
2017,03,14,01,29,9.60
2017,03,14,01,30,9.60
2017,03,14,01,31,9.60
2017,03,14,01,32,9.60
2017,03,14,01,33,9.60
2017,03,14,01,34,9.60
2017,03,14,01,35,9.60
2017,03,14,01,36,9.60
2017,03,14,01,37,9.50
2017,03,14,01,38,9.50
2017,03,14,01,39,9.60
2017,03,14,01,40,9.60
2017,03,14,01,41,9.60
2017,03,14,01,42,9.60
2017,03,14,01,43,9.60
2017,03,14,01,44,9.60
2017,03,14,01,45,9.60
2017,03,14,01,46,9.60
2017,03,14,01,47,9.60
2017,03,14,01,48,9.60
2017,03,14,01,49,9.60
2017,03,14,01,50,9.60
2017,03,14,01,51,9.60
2017,03,14,01,52,9.60
2017,03,14,01,53,9.60
2017,03,14,01,54,9.60
2017,03,14,01,55,9.60
2017,03,14,01,56,9.60
2017,03,14,01,57,9.60
2017,03,14,01,58,9.60
2017,03,14,01,59,9.60
2017,03,14,02,00,9.60
2017,03,14,02,01,9.60
2017,03,14,02,02,9.60
2017,03,14,02,03,9.60
2017,03,14,02,04,9.60
2017,03,14,02,05,9.50
2017,03,14,02,06,9.50
2017,03,14,02,07,9.50
2017,03,14,02,08,9.50
2017,03,14,02,09,9.50
2017,03,14,02,10,9.50
2017,03,14,02,11,9.50
2017,03,14,02,12,9.50
2017,03,14,02,13,9.40
2017,03,14,02,14,9.40
2017,03,14,02,15,9.40
2017,03,14,02,16,9.40
2017,03,14,02,17,9.40
2017,03,14,02,18,9.40
2017,03,14,02,19,9.40
2017,03,14,02,20,9.40
2017,03,14,02,21,9.40
2017,03,14,02,22,9.40
2017,03,14,02,23,9.40
2017,03,14,02,24,9.40
2017,03,14,02,25,9.40
2017,03,14,02,26,9.40
2017,03,14,02,27,9.40
2017,03,14,02,28,9.30
2017,03,14,02,29,9.30
2017,03,14,02,30,9.30
2017,03,14,02,31,9.30
2017,03,14,02,32,9.30
2017,03,14,02,33,9.30
2017,03,14,02,34,9.30
2017,03,14,02,35,9.30
2017,03,14,02,36,9.30
2017,03,14,02,37,9.30
2017,03,14,02,38,9.30
2017,03,14,02,39,9.30
2017,03,14,02,40,9.30
2017,03,14,02,41,9.30
2017,03,14,02,42,9.30
2017,03,14,02,43,9.30
2017,03,14,02,44,9.30
2017,03,14,02,45,9.30
2017,03,14,02,46,9.30
2017,03,14,02,47,9.30
2017,03,14,02,48,9.30
2017,03,14,02,49,9.30
2017,03,14,02,50,9.30
2017,03,14,02,51,9.30
2017,03,14,02,52,9.30
2017,03,14,02,53,9.30
2017,03,14,02,54,9.30
2017,03,14,02,55,9.30
2017,03,14,02,56,9.30
2017,03,14,02,57,9.30
2017,03,14,02,58,9.30
2017,03,14,02,59,9.30
2017,03,14,03,00,9.30
2017,03,14,03,01,9.30
2017,03,14,03,02,9.30
2017,03,14,03,03,9.30
2017,03,14,03,04,9.30
2017,03,14,03,05,9.30
2017,03,14,03,06,9.30
2017,03,14,03,07,9.40
2017,03,14,03,08,9.40
2017,03,14,03,09,9.40
2017,03,14,03,10,9.40
2017,03,14,03,11,9.40
2017,03,14,03,12,9.40
2017,03,14,03,13,9.40
2017,03,14,03,14,9.40
2017,03,14,03,15,9.40
2017,03,14,03,16,9.40
2017,03,14,03,17,9.40
2017,03,14,03,18,9.40
2017,03,14,03,19,9.40
2017,03,14,03,20,9.40
2017,03,14,03,21,9.40
2017,03,14,03,22,9.40
2017,03,14,03,23,9.40
2017,03,14,03,24,9.40
2017,03,14,03,25,9.40
2017,03,14,03,26,9.40
2017,03,14,03,27,9.40
2017,03,14,03,28,9.40
2017,03,14,03,29,9.40
2017,03,14,03,30,9.40
2017,03,14,03,31,9.40
2017,03,14,03,32,9.40
2017,03,14,03,33,9.40
2017,03,14,03,34,9.50
2017,03,14,03,35,9.40
2017,03,14,03,36,9.50
2017,03,14,03,37,9.50
2017,03,14,03,38,9.50
2017,03,14,03,39,9.50
2017,03,14,03,40,9.50
2017,03,14,03,41,9.50
2017,03,14,03,42,9.50
2017,03,14,03,43,9.50
2017,03,14,03,44,9.40
2017,03,14,03,45,9.50
2017,03,14,03,46,9.50
2017,03,14,03,47,9.40
2017,03,14,03,48,9.40
2017,03,14,03,49,9.50
2017,03,14,03,50,9.50
2017,03,14,03,51,9.50
2017,03,14,03,52,9.50
2017,03,14,03,53,9.50
2017,03,14,03,54,9.50
2017,03,14,03,55,9.40
2017,03,14,03,56,9.40
2017,03,14,03,57,9.40
2017,03,14,03,58,9.40
2017,03,14,03,59,9.40
2017,03,14,04,00,9.40
2017,03,14,04,01,9.40
2017,03,14,04,02,9.40
2017,03,14,04,03,9.40
2017,03,14,04,04,9.40
2017,03,14,04,05,9.40
2017,03,14,04,06,9.40
2017,03,14,04,07,9.40
2017,03,14,04,08,9.40
2017,03,14,04,09,9.40
2017,03,14,04,10,9.40
2017,03,14,04,11,9.40
2017,03,14,04,12,9.40
2017,03,14,04,13,9.40
2017,03,14,04,14,9.30
2017,03,14,04,15,9.30
2017,03,14,04,16,9.30
2017,03,14,04,17,9.30
2017,03,14,04,18,9.30
2017,03,14,04,19,9.30
2017,03,14,04,20,9.30
2017,03,14,04,21,9.30
2017,03,14,04,22,9.30
2017,03,14,04,23,9.30
2017,03,14,04,24,9.30
2017,03,14,04,25,9.30
2017,03,14,04,26,9.30
2017,03,14,04,27,9.30
2017,03,14,04,28,9.30
2017,03,14,04,29,9.30
2017,03,14,04,30,9.30
2017,03,14,04,31,9.30
2017,03,14,04,32,9.20
2017,03,14,04,33,9.20
2017,03,14,04,34,9.20
2017,03,14,04,35,9.20
2017,03,14,04,36,9.20
2017,03,14,04,37,9.20
2017,03,14,04,38,9.20
2017,03,14,04,39,9.20
2017,03,14,04,40,9.20
2017,03,14,04,41,9.20
2017,03,14,04,42,9.20
2017,03,14,04,43,9.20
2017,03,14,04,44,9.20
2017,03,14,04,45,9.20
2017,03,14,04,46,9.20
2017,03,14,04,47,9.20
2017,03,14,04,48,9.20
2017,03,14,04,49,9.20
2017,03,14,04,50,9.20
2017,03,14,04,51,9.20
2017,03,14,04,52,9.20
2017,03,14,04,53,9.20
2017,03,14,04,54,9.30
2017,03,14,04,55,9.30
2017,03,14,04,56,9.30
2017,03,14,04,57,9.30
2017,03,14,04,58,9.30
2017,03,14,04,59,9.30
2017,03,14,05,00,9.30
2017,03,14,05,01,9.30
2017,03,14,05,02,9.30
2017,03,14,05,03,9.30
2017,03,14,05,04,9.40
2017,03,14,05,05,9.40
2017,03,14,05,06,9.40
2017,03,14,05,07,9.40
2017,03,14,05,08,9.40
2017,03,14,05,09,9.40
2017,03,14,05,10,9.40
2017,03,14,05,11,9.40
2017,03,14,05,12,9.40
2017,03,14,05,13,9.50
2017,03,14,05,14,9.50
2017,03,14,05,15,9.50
2017,03,14,05,16,9.50
2017,03,14,05,17,9.50
2017,03,14,05,18,9.60
2017,03,14,05,19,9.60
2017,03,14,05,20,9.60
2017,03,14,05,21,9.60
2017,03,14,05,22,9.60
2017,03,14,05,23,9.60
2017,03,14,05,24,9.60
2017,03,14,05,25,9.60
2017,03,14,05,26,9.60
2017,03,14,05,27,9.60
2017,03,14,05,28,9.60
2017,03,14,05,29,9.60
2017,03,14,05,30,9.60
2017,03,14,05,31,9.60
2017,03,14,05,32,9.60
2017,03,14,05,33,9.50
2017,03,14,05,34,9.50
2017,03,14,05,35,9.50
2017,03,14,05,36,9.50
2017,03,14,05,37,9.50
2017,03,14,05,38,9.50
2017,03,14,05,39,9.50
2017,03,14,05,40,9.50
2017,03,14,05,41,9.50
2017,03,14,05,42,9.50
2017,03,14,05,43,9.40
2017,03,14,05,44,9.40
2017,03,14,05,45,9.40
2017,03,14,05,46,9.40
2017,03,14,05,47,9.40
2017,03,14,05,48,9.40
2017,03,14,05,49,9.40
2017,03,14,05,50,9.40
2017,03,14,05,51,9.40
2017,03,14,05,52,9.30
2017,03,14,05,53,9.30
2017,03,14,05,54,9.30
2017,03,14,05,55,9.30
2017,03,14,05,56,9.30
2017,03,14,05,57,9.30
2017,03,14,05,58,9.30
2017,03,14,05,59,9.30
2017,03,14,06,00,9.30
2017,03,14,06,01,9.30
2017,03,14,06,02,9.30
2017,03,14,06,03,9.30
2017,03,14,06,04,9.30
2017,03,14,06,05,9.30
2017,03,14,06,06,9.30
2017,03,14,06,07,9.30
2017,03,14,06,08,9.30
2017,03,14,06,09,9.20
2017,03,14,06,10,9.20
2017,03,14,06,11,9.20
2017,03,14,06,12,9.20
2017,03,14,06,13,9.20
2017,03,14,06,14,9.20
2017,03,14,06,15,9.20
2017,03,14,06,16,9.20
2017,03,14,06,17,9.20
2017,03,14,06,18,9.20
2017,03,14,06,19,9.20
2017,03,14,06,20,9.20
2017,03,14,06,21,9.20
2017,03,14,06,22,9.20
2017,03,14,06,23,9.20
2017,03,14,06,24,9.20
2017,03,14,06,25,9.20
2017,03,14,06,26,9.20
2017,03,14,06,27,9.10
2017,03,14,06,28,9.20
2017,03,14,06,29,9.20
2017,03,14,06,30,9.20
2017,03,14,06,31,9.10
2017,03,14,06,32,9.10
2017,03,14,06,33,9.10
2017,03,14,06,34,9.10
2017,03,14,06,35,9.10
2017,03,14,06,36,9.10
2017,03,14,06,37,9.10
2017,03,14,06,38,9.10
2017,03,14,06,39,9.10
2017,03,14,06,40,9.10
2017,03,14,06,41,9.10
2017,03,14,06,42,9.10
2017,03,14,06,43,9.10
2017,03,14,06,44,9.10
2017,03,14,06,45,9.10
2017,03,14,06,46,9.10
2017,03,14,06,47,9.10
2017,03,14,06,48,9.10
2017,03,14,06,49,9.10
2017,03,14,06,50,9.10
2017,03,14,08,48,9.40
2017,03,14,08,49,9.40
2017,03,14,08,50,9.50
2017,03,14,08,51,9.50
2017,03,14,08,52,9.50
2017,03,14,08,53,9.50
2017,03,14,08,54,9.50
2017,03,14,08,55,9.50
2017,03,14,08,56,9.50
2017,03,14,08,57,9.50
2017,03,14,08,58,9.50
2017,03,14,08,59,9.60
2017,03,14,09,00,9.60
2017,03,14,09,01,9.60
2017,03,14,09,02,9.60
2017,03,14,09,03,9.60
2017,03,14,09,04,9.60
2017,03,14,09,05,9.60
2017,03,14,09,06,9.60
2017,03,14,09,07,9.60
2017,03,14,09,08,9.70
2017,03,14,09,09,9.70
2017,03,14,09,10,9.70
2017,03,14,09,11,9.70
2017,03,14,09,12,9.70
2017,03,14,09,13,9.70
2017,03,14,09,14,9.80
2017,03,14,09,15,9.80
2017,03,14,09,16,9.70
2017,03,14,09,17,9.70
2017,03,14,09,18,9.70
2017,03,14,09,19,9.70
2017,03,14,09,20,9.70
2017,03,14,09,21,9.70
2017,03,14,09,22,9.70
2017,03,14,09,23,9.70
2017,03,14,09,24,9.70
2017,03,14,09,25,9.80
2017,03,14,09,26,9.70
2017,03,14,09,27,9.70
2017,03,14,09,28,9.70
2017,03,14,09,29,9.70
2017,03,14,09,30,9.70
2017,03,14,09,31,9.70
2017,03,14,09,32,9.70
2017,03,14,09,33,9.70
2017,03,14,09,34,9.70
2017,03,14,09,35,9.70
2017,03,14,09,36,9.70
2017,03,14,09,37,9.70
2017,03,14,09,38,9.70
2017,03,14,09,39,9.70
2017,03,14,09,40,9.70
2017,03,14,09,41,9.70
2017,03,14,09,42,9.70
2017,03,14,09,43,9.70
2017,03,14,09,44,9.70
2017,03,14,09,45,9.70
2017,03,14,09,46,9.70
2017,03,14,09,47,9.80
2017,03,14,09,48,9.80
2017,03,14,09,49,9.80
2017,03,14,09,50,9.80
2017,03,14,09,51,9.80
2017,03,14,09,52,9.90
2017,03,14,09,53,9.90
2017,03,14,09,54,9.90
2017,03,14,09,55,9.90
2017,03,14,09,56,9.90
2017,03,14,09,57,9.90
2017,03,14,09,58,10.00
2017,03,14,09,59,10.00
2017,03,14,10,00,10.10
2017,03,14,10,01,10.10
2017,03,14,10,02,10.20
2017,03,14,10,03,10.20
2017,03,14,10,04,10.20
2017,03,14,10,05,10.20
2017,03,14,10,06,10.20
2017,03,14,10,07,10.30
2017,03,14,10,08,10.30
2017,03,14,10,09,10.30
2017,03,14,10,10,10.30
2017,03,14,10,11,10.30
2017,03,14,10,12,10.30
2017,03,14,10,13,10.30
2017,03,14,10,14,10.30
2017,03,14,10,15,10.40
2017,03,14,10,16,10.40
2017,03,14,10,17,10.40
2017,03,14,10,18,10.40
2017,03,14,10,19,10.40
2017,03,14,10,20,10.50
2017,03,14,10,21,10.50
2017,03,14,10,22,10.60
2017,03,14,10,23,10.60
2017,03,14,10,24,10.70
2017,03,14,10,25,10.70
2017,03,14,10,26,10.70
2017,03,14,10,27,10.80
2017,03,14,10,28,10.80
2017,03,14,10,29,10.80
2017,03,14,10,30,10.80
2017,03,14,10,31,10.90
2017,03,14,10,32,10.90
2017,03,14,10,33,10.90
2017,03,14,10,34,11.00
2017,03,14,10,35,11.10
2017,03,14,10,36,11.20
2017,03,14,10,37,11.20
2017,03,14,10,38,11.30
2017,03,14,10,39,11.40
2017,03,14,10,40,11.50
2017,03,14,10,41,11.60
2017,03,14,10,42,11.70
2017,03,14,10,43,11.70
2017,03,14,10,44,11.80
2017,03,14,10,45,11.90
2017,03,14,10,46,11.90
2017,03,14,10,47,12.00
2017,03,14,10,48,12.00
2017,03,14,10,49,12.10
2017,03,14,10,50,12.10
2017,03,14,10,51,12.20
2017,03,14,10,52,12.30
2017,03,14,10,53,12.30
2017,03,14,10,54,12.40
2017,03,14,10,55,12.50
2017,03,14,10,56,12.50
2017,03,14,10,57,12.60
2017,03,14,10,58,12.70
2017,03,14,10,59,12.80
2017,03,14,11,00,12.90
2017,03,14,11,01,12.90
2017,03,14,11,02,13.00
2017,03,14,11,03,13.10
2017,03,14,11,04,13.20
2017,03,14,11,05,13.30
2017,03,14,11,06,13.40
2017,03,14,11,07,13.50
2017,03,14,11,08,13.60
2017,03,14,11,09,13.60
2017,03,14,11,10,13.70
2017,03,14,11,11,13.70
2017,03,14,11,12,13.70
2017,03,14,11,13,13.80
2017,03,14,11,14,13.80
2017,03,14,11,15,13.80
2017,03,14,11,16,13.80
2017,03,14,11,17,13.90
2017,03,14,11,18,13.90
2017,03,14,11,19,13.90
2017,03,14,11,20,13.90
2017,03,14,11,21,13.90
2017,03,14,11,22,13.90
2017,03,14,11,23,13.90
2017,03,14,11,24,14.00
2017,03,14,11,25,14.00
2017,03,14,11,26,14.10
2017,03,14,11,27,14.10
2017,03,14,11,28,14.10
2017,03,14,11,29,14.10
2017,03,14,11,30,14.10
2017,03,14,11,31,14.20
2017,03,14,11,32,14.20
2017,03,14,11,33,14.20
2017,03,14,11,34,14.30
2017,03,14,11,35,14.30
2017,03,14,11,36,14.30
2017,03,14,11,37,14.30
2017,03,14,11,38,14.30
2017,03,14,11,39,14.40
2017,03,14,11,40,14.40
2017,03,14,11,41,14.30
2017,03,14,11,42,14.30
2017,03,14,11,43,14.30
2017,03,14,11,44,14.20
2017,03,14,11,45,14.20
2017,03,14,11,46,14.20
2017,03,14,11,47,14.30
2017,03,14,11,48,14.30
2017,03,14,11,49,14.30
2017,03,14,11,50,14.30
2017,03,14,11,51,14.30
2017,03,14,11,52,14.30
2017,03,14,11,53,14.30
2017,03,14,11,54,14.30
2017,03,14,11,55,14.30
2017,03,14,11,56,14.30
2017,03,14,11,57,14.30
2017,03,14,11,58,14.30
2017,03,14,11,59,14.40
2017,03,14,12,00,14.40
2017,03,14,12,01,14.50
2017,03,14,12,02,14.50
2017,03,14,12,03,14.60
2017,03,14,12,04,14.60
2017,03,14,12,05,14.60
2017,03,14,12,06,14.70
2017,03,14,12,07,14.60
2017,03,14,12,08,14.60
2017,03,14,12,09,14.60
2017,03,14,12,10,14.60
2017,03,14,12,11,14.60
2017,03,14,12,12,14.50
2017,03,14,12,13,14.50
2017,03,14,12,14,14.50
2017,03,14,12,15,14.60
2017,03,14,12,16,14.60
2017,03,14,12,17,14.70
2017,03,14,12,18,14.70
2017,03,14,12,19,14.70
2017,03,14,12,20,14.80
2017,03,14,12,21,14.80
2017,03,14,12,22,14.80
2017,03,14,12,23,14.70
2017,03,14,12,24,14.60
2017,03,14,12,25,14.40
2017,03,14,12,26,14.20
2017,03,14,12,27,14.00
2017,03,14,12,28,13.80
2017,03,14,12,29,13.60
2017,03,14,12,30,13.30
2017,03,14,12,31,13.10
2017,03,14,12,32,12.80
2017,03,14,12,33,12.70
2017,03,14,12,34,12.60
2017,03,14,12,35,12.50
2017,03,14,12,36,12.30
2017,03,14,12,37,12.20
2017,03,14,12,38,12.00
2017,03,14,12,39,11.90
2017,03,14,12,40,11.90
2017,03,14,12,41,11.90
2017,03,14,12,42,11.90
2017,03,14,12,43,11.90
2017,03,14,12,44,11.90
2017,03,14,12,45,11.90
2017,03,14,12,46,11.90
2017,03,14,12,47,12.00
2017,03,14,12,48,12.00
2017,03,14,12,49,12.00
2017,03,14,12,50,12.10
2017,03,14,12,51,12.10
2017,03,14,12,52,12.10
2017,03,14,12,53,12.10
2017,03,14,12,54,12.10
2017,03,14,12,55,12.10
2017,03,14,12,56,12.10
2017,03,14,12,57,12.10
2017,03,14,12,58,12.10
2017,03,14,12,59,12.10
2017,03,14,13,00,12.10
2017,03,14,13,01,12.00
2017,03,14,13,02,12.00
2017,03,14,13,03,12.00
2017,03,14,13,04,11.90
2017,03,14,13,05,11.90
2017,03,14,13,06,11.90
2017,03,14,13,07,11.90
2017,03,14,13,08,11.90
2017,03,14,13,09,11.80
2017,03,14,13,10,11.80
2017,03,14,13,11,11.80
2017,03,14,13,12,11.80
2017,03,14,13,13,11.80
2017,03,14,13,14,11.80
2017,03,14,13,15,11.80
2017,03,14,13,16,11.80
2017,03,14,13,17,11.80
2017,03,14,13,18,11.80
2017,03,14,13,19,11.90
2017,03,14,13,20,11.90
2017,03,14,13,21,12.00
2017,03,14,13,22,12.00
2017,03,14,13,23,12.10
2017,03,14,13,24,12.10
2017,03,14,13,25,12.20
2017,03,14,13,26,12.20
2017,03,14,13,27,12.30
2017,03,14,13,28,12.30
2017,03,14,13,29,12.40
2017,03,14,13,30,12.30
2017,03,14,13,31,12.30
2017,03,14,13,32,12.30
2017,03,14,13,33,12.40
2017,03,14,13,34,12.40
2017,03,14,13,35,12.50
2017,03,14,13,36,12.50
2017,03,14,13,37,12.40
2017,03,14,13,38,12.40
2017,03,14,13,39,12.30
2017,03,14,13,40,12.30
2017,03,14,13,41,12.30
2017,03,14,13,42,12.20
2017,03,14,13,43,12.20
2017,03,14,13,44,12.30
2017,03,14,13,45,12.30
2017,03,14,13,46,12.30
2017,03,14,13,47,12.30
2017,03,14,13,48,12.30
2017,03,14,13,49,12.30
2017,03,14,13,50,12.20
2017,03,14,13,51,12.20
2017,03,14,13,52,12.20
2017,03,14,13,53,12.30
2017,03,14,13,54,12.30
2017,03,14,13,55,12.20
2017,03,14,13,56,12.20
2017,03,14,13,57,12.20
2017,03,14,13,58,12.10
2017,03,14,13,59,12.10
2017,03,14,14,00,12.10
2017,03,14,14,01,12.10
2017,03,14,14,02,12.10
2017,03,14,14,03,12.10
2017,03,14,14,04,12.10
2017,03,14,14,05,12.10
2017,03,14,14,06,12.10
2017,03,14,14,07,12.10
2017,03,14,14,08,12.10
2017,03,14,14,09,12.10
2017,03,14,14,10,12.10
2017,03,14,14,11,12.10
2017,03,14,14,12,12.10
2017,03,14,14,13,12.20
2017,03,14,14,14,12.20
2017,03,14,14,15,12.20
2017,03,14,14,16,12.20
2017,03,14,14,17,12.30
2017,03,14,14,18,12.30
2017,03,14,14,19,12.20
2017,03,14,14,20,12.30
2017,03,14,14,21,12.30
2017,03,14,14,22,12.40
2017,03,14,14,23,12.40
2017,03,14,14,24,12.30
2017,03,14,14,25,12.30
2017,03,14,14,26,12.30
2017,03,14,14,27,12.30
2017,03,14,14,28,12.30
2017,03,14,14,29,12.30
2017,03,14,14,30,12.30
2017,03,14,14,31,12.40
2017,03,14,14,32,12.40
2017,03,14,14,33,12.40
2017,03,14,14,34,12.40
2017,03,14,14,35,12.40
2017,03,14,14,36,12.50
2017,03,14,14,37,12.40
2017,03,14,14,38,12.50
2017,03,14,14,39,12.50
2017,03,14,14,40,12.60
2017,03,14,14,41,12.70
2017,03,14,14,42,12.80
2017,03,14,14,43,12.90
2017,03,14,14,44,12.80
2017,03,14,14,45,12.80
2017,03,14,14,46,12.90
2017,03,14,14,47,12.90
2017,03,14,14,48,13.00
2017,03,14,14,49,13.10
2017,03,14,14,50,13.10
2017,03,14,14,51,13.10
2017,03,14,14,52,13.10
2017,03,14,14,53,13.10
2017,03,14,14,54,13.20
2017,03,14,14,55,13.20
2017,03,14,14,56,13.30
2017,03,14,14,57,13.30
2017,03,14,14,58,13.30
2017,03,14,14,59,13.30
2017,03,14,15,00,13.40
2017,03,14,15,01,13.50
2017,03,14,15,02,13.50
2017,03,14,15,03,13.70
2017,03,14,15,04,13.80
2017,03,14,15,05,13.90
2017,03,14,15,06,14.00
2017,03,14,15,07,14.00
2017,03,14,15,08,14.10
2017,03,14,15,09,14.20
2017,03,14,15,10,14.30
2017,03,14,15,11,14.40
2017,03,14,15,12,14.50
2017,03,14,15,13,14.60
2017,03,14,15,14,14.60
2017,03,14,15,15,14.70
2017,03,14,15,16,14.80
2017,03,14,15,17,14.90
2017,03,14,15,18,14.90
2017,03,14,15,19,15.00
2017,03,14,15,20,15.00
2017,03,14,15,21,14.90
2017,03,14,15,22,14.90
2017,03,14,15,23,14.90
2017,03,14,15,24,14.90
2017,03,14,15,25,14.90
2017,03,14,15,26,14.90
2017,03,14,15,27,15.00
2017,03,14,15,28,14.90
2017,03,14,15,29,14.90
2017,03,14,15,30,14.80
2017,03,14,15,31,14.80
2017,03,14,15,32,14.80
2017,03,14,15,33,14.80
2017,03,14,15,34,14.80
2017,03,14,15,35,14.80
2017,03,14,15,36,14.80
2017,03,14,15,37,14.80
2017,03,14,15,38,14.80
2017,03,14,15,39,14.90
2017,03,14,15,40,14.90
2017,03,14,15,41,14.90
2017,03,14,15,42,15.00
2017,03,14,15,43,15.00
2017,03,14,15,44,15.00
2017,03,14,15,45,14.90
2017,03,14,15,46,14.90
2017,03,14,15,47,14.90
2017,03,14,15,48,14.90
2017,03,14,15,49,14.90
2017,03,14,15,50,14.80
2017,03,14,15,51,14.80
2017,03,14,15,52,14.80
2017,03,14,15,53,14.80
2017,03,14,15,54,14.80
2017,03,14,15,55,14.70
2017,03,14,15,56,14.70
2017,03,14,15,57,14.70
2017,03,14,15,58,14.70
2017,03,14,15,59,14.70
2017,03,14,16,00,14.70
2017,03,14,16,01,14.70
2017,03,14,16,02,14.70
2017,03,14,16,03,14.70
2017,03,14,16,04,14.70
2017,03,14,16,05,14.60
2017,03,14,16,06,14.60
2017,03,14,16,07,14.60
2017,03,14,16,08,14.60
2017,03,14,16,09,14.50
2017,03,14,16,10,14.50
2017,03,14,16,11,14.50
2017,03,14,16,12,14.50
2017,03,14,16,13,14.50
2017,03,14,16,14,14.40
2017,03,14,16,15,14.40
2017,03,14,16,16,14.40
2017,03,14,16,17,14.40
2017,03,14,16,18,14.40
2017,03,14,16,19,14.40
2017,03,14,16,20,14.40
2017,03,14,16,21,14.40
2017,03,14,16,22,14.30
2017,03,14,16,23,14.30
2017,03,14,16,24,14.30
2017,03,14,16,25,14.20
2017,03,14,16,26,14.20
2017,03,14,16,27,14.20
2017,03,14,16,28,14.20
2017,03,14,16,29,14.20
2017,03,14,16,30,14.20
2017,03,14,16,31,14.20
2017,03,14,16,32,14.20
2017,03,14,16,33,14.20
2017,03,14,16,34,14.10
2017,03,14,16,35,14.10
2017,03,14,16,36,14.10
2017,03,14,16,37,14.10
2017,03,14,16,38,14.00
2017,03,14,16,39,14.00
2017,03,14,16,40,13.90
2017,03,14,16,41,13.90
2017,03,14,16,42,13.90
2017,03,14,16,43,13.80
2017,03,14,16,44,13.80
2017,03,14,16,45,13.80
2017,03,14,16,46,13.80
2017,03,14,16,47,13.80
2017,03,14,16,48,13.70
2017,03,14,16,49,13.70
2017,03,14,16,50,13.70
2017,03,14,16,51,13.70
2017,03,14,16,52,13.70
2017,03,14,16,53,13.70
2017,03,14,16,54,13.70
2017,03,14,16,55,13.70
2017,03,14,16,56,13.70
2017,03,14,16,57,13.60
2017,03,14,16,58,13.60
2017,03,14,16,59,13.60
2017,03,14,17,00,13.50
2017,03,14,17,01,13.50
2017,03,14,17,02,13.50
2017,03,14,17,03,13.40
2017,03,14,17,04,13.40
2017,03,14,17,05,13.40
2017,03,14,17,06,13.40
2017,03,14,17,07,13.40
2017,03,14,17,08,13.40
2017,03,14,17,09,13.40
2017,03,14,17,10,13.30
2017,03,14,17,11,13.30
2017,03,14,17,12,13.30
2017,03,14,17,13,13.30
2017,03,14,17,14,13.30
2017,03,14,17,15,13.40
2017,03,14,17,16,13.40
2017,03,14,17,17,13.40
2017,03,14,17,18,13.40
2017,03,14,17,19,13.40
2017,03,14,17,20,13.40
2017,03,14,17,21,13.40
2017,03,14,17,22,13.40
2017,03,14,17,23,13.40
2017,03,14,17,24,13.40
2017,03,14,17,25,13.40
2017,03,14,17,26,13.40
2017,03,14,17,27,13.40
2017,03,14,17,28,13.40
2017,03,14,17,29,13.40
2017,03,14,17,30,13.40
2017,03,14,17,31,13.40
2017,03,14,17,32,13.40
2017,03,14,17,33,13.40
2017,03,14,17,34,13.40
2017,03,14,17,35,13.40
2017,03,14,17,36,13.40
2017,03,14,17,37,13.40
2017,03,14,17,38,13.40
2017,03,14,17,39,13.40
2017,03,14,17,40,13.30
2017,03,14,17,41,13.30
2017,03,14,17,42,13.30
2017,03,14,17,43,13.30
2017,03,14,17,44,13.20
2017,03,14,17,45,13.20
2017,03,14,17,46,13.20
2017,03,14,17,47,13.20
2017,03,14,17,48,13.20
2017,03,14,17,49,13.20
2017,03,14,17,50,13.10
2017,03,14,17,51,13.10
2017,03,14,17,52,13.10
2017,03,14,17,53,13.10
2017,03,14,17,54,13.10
2017,03,14,17,55,13.10
2017,03,14,17,56,13.10
2017,03,14,17,57,13.10
2017,03,14,17,58,13.10
2017,03,14,17,59,13.10
2017,03,14,18,00,13.00
2017,03,14,18,01,13.00
2017,03,14,18,02,13.00
2017,03,14,18,03,13.00
2017,03,14,18,04,12.90
2017,03,14,18,05,12.90
2017,03,14,18,06,12.90
2017,03,14,18,07,12.90
2017,03,14,18,08,12.90
2017,03,14,18,09,12.80
2017,03,14,18,10,12.80
2017,03,14,18,11,12.80
2017,03,14,18,12,12.80
2017,03,14,18,13,12.80
2017,03,14,18,14,12.80
2017,03,14,18,15,12.80
2017,03,14,18,16,12.80
2017,03,14,18,17,12.80
2017,03,14,18,18,12.80
2017,03,14,18,19,12.80
2017,03,14,18,20,12.70
2017,03,14,18,21,12.70
2017,03,14,18,22,12.70
2017,03,14,18,23,12.70
2017,03,14,18,24,12.60
2017,03,14,18,25,12.60
2017,03,14,18,26,12.60
2017,03,14,18,27,12.50
2017,03,14,18,28,12.40
2017,03,14,18,29,12.40
2017,03,14,18,30,12.40
2017,03,14,18,31,12.40
2017,03,14,18,32,12.40
2017,03,14,18,33,12.40
2017,03,14,18,34,12.40
2017,03,14,18,35,12.40
2017,03,14,18,36,12.40
2017,03,14,18,37,12.40
2017,03,14,18,38,12.40
2017,03,14,18,39,12.40
2017,03,14,18,40,12.40
2017,03,14,18,41,12.40
2017,03,14,18,42,12.40
2017,03,14,18,43,12.40
2017,03,14,18,44,12.30
2017,03,14,18,45,12.30
2017,03,14,18,46,12.30
2017,03,14,18,47,12.30
2017,03,14,18,48,12.30
2017,03,14,18,49,12.30
2017,03,14,18,50,12.30
2017,03,14,18,51,12.30
2017,03,14,18,52,12.30
2017,03,14,18,53,12.20
2017,03,14,18,54,12.20
2017,03,14,18,55,12.20
2017,03,14,18,56,12.20
2017,03,14,18,57,12.20
2017,03,14,18,58,12.20
2017,03,14,18,59,12.20
2017,03,14,19,00,12.20
2017,03,14,19,01,12.20
2017,03,14,19,02,12.20
2017,03,14,19,03,12.20
2017,03,14,19,04,12.20
2017,03,14,19,05,12.20
2017,03,14,19,06,12.10
2017,03,14,19,07,12.10
2017,03,14,19,08,12.10
2017,03,14,19,09,12.10
2017,03,14,19,10,12.10
2017,03,14,19,11,12.00
2017,03,14,19,12,12.00
2017,03,14,19,13,12.00
2017,03,14,19,14,11.90
2017,03,14,19,15,11.90
2017,03,14,19,16,11.90
2017,03,14,19,17,11.90
2017,03,14,19,18,11.90
2017,03,14,19,19,11.90
2017,03,14,19,20,11.80
2017,03,14,19,21,11.80
2017,03,14,19,22,11.80
2017,03,14,19,23,11.80
2017,03,14,19,24,11.80
2017,03,14,19,25,11.80
2017,03,14,19,26,11.80
2017,03,14,19,27,11.80
2017,03,14,19,28,11.80
2017,03,14,19,29,11.80
2017,03,14,19,30,11.80
2017,03,14,19,31,11.70
2017,03,14,19,32,11.70
2017,03,14,19,33,11.70
2017,03,14,19,34,11.70
2017,03,14,19,35,11.60
2017,03,14,19,36,11.60
2017,03,14,19,37,11.60